Starlink 36201

operational
NORAD ID: 67164 Int'l Des: 2025-303 Owner: SPXS Country: US Constellation: starlink
LEOCIRCULAR

About Starlink 36201

Description loading...

Live Position

Loading 3D Globe...

Upcoming Passes

Altitude History

Altitude vs Time

uPlot chart will show altitude changes over time

Two-Line Element Set

1 67164C 25303B 25352.76645833 .00687550 00000+0 10177-2 0 3527
2 67164 43.0044 61.7914 0007368 289.2479 253.0921 16.03190861 12
Epoch: Dec 18, 2025 • Age: 50 hours

Current Status

Altitude 265.4 km
Velocity 7.75 km/s
Sub-Earth Point -33.23°S, 114.24°W
Launch Date Dec 17, 2025
Age 2 days
Type internet

Technical Details

Classification Payload
Mass 575.00 kg
Dry Mass 530.00 kg
Total Mass 575.00 kg
Length 0.30 m
Diameter 4.10 m
Span 29.00 m
Shape Box + pan
Manufacturer SPXS
Bus Type Starlink V2MO
Phase Status In Orbit
Owner/State SPXS/US

Large Constellations

Loading constellations...